Find Starlink 5697

NORAD ID: 55589 Int'l Des: 2023-020 Owner: SPXS Country: US Constellation: starlink operational
LEOCIRCULAR

現在のビュー

3D地球を読み込み中...

About Starlink 5697

Starlink 5697 (NORAD 55589) is a starlink constellation satellite (v1.5) launched Feb 12, 2023 by SPXS of US. It operates in LEO, CIRCULAR orbit with a mass of 305.00 kg.

Starlink 5697について

説明を読み込み中...

次回通過

Passes for default location (London). Set your location on the main map for personalized predictions.

高度履歴

Loading altitude history...

軌道要素

1 55589U 23020W 26170.96050342 .00000796 00000-0 38438-4 0 9996
2 55589 43.0013 147.6409 0001096 274.8245 85.2482 15.27579115184559
Epoch: Jun 19, 2026 • Age: 18 hours

現在のステータス

高度 486.3 km
速度 7.63 km/s
衛星直下点 40.67°N, 51.55°E
打ち上げ日 Feb 12, 2023
運用期間 3.3 years
タイプ internet

技術仕様

分類 Payload
質量 305.00 kg
乾燥質量 290.00 kg
総質量 305.00 kg
長さ 0.20 m
直径 2.80 m
スパン 9.00 m
形状 Box + pan
製造者 SPXS
バスタイプ Starlink
フェーズステータス In Orbit
所有者/国 SPXS/US

Most Searched